Find Starlink 5472

NORAD ID: 54767 Int'l Des: 2022-175 Owner: SPXS Country: US Constellation: starlink operational
LEOCIRCULAR

实时位置

正在加载3D地球...

关于 Starlink 5472

正在加载描述...

即将过境

Passes for default location (London). Set your location on the main map for personalized predictions.

高度历史

Loading altitude history...

两行轨道根数

1 54767U 22175K 26126.34493911 -.00003279 00000-0 -18812-3 0 9993
2 54767 53.2160 145.2496 0001143 57.0675 303.0426 15.08826560188622
Epoch: May 6, 2026 • Age: 21 hours

当前状态

高度 539.8 km
速度 7.60 km/s
星下点 22.62°N, 141.73°W
发射日期 Dec 17, 2022
运行时间 3.3 years
类型 internet

技术详情

分类 Payload
质量 305.00 kg
干质量 290.00 kg
总质量 305.00 kg
长度 0.20 m
直径 2.80 m
跨度 9.00 m
形状 Box + pan
制造商 SPXS
平台类型 Starlink
阶段状态 In Orbit
所有者/国家 SPXS/US

Most Searched